Home   Weather   Laredo   Past weeks

Flag for USA Past Weather in Laredo, Texas, USA — Yesterday and Last 2 Weeks

Now
60 °F

Clear.


Feels Like: 60 °F
Forecast: 64 / 80 °F
Wind: 10 mph from Northwest

Location: Laredo International Airport

Current Time: Feb 20, 2017 at 7:28:14 am

Latest Report: Feb 20, 2017 at 6:56 am


Visibility: 10 mi

Pressure: 29.98 "Hg

Humidity: 90%

Dew Point: 57 °F

Location of LaredoLocation

Past Weather in Laredo — Graph

°F

Laredo Temperature Yesterday

Maximum temperature yesterday: 88 °F (at 2:56 pm)
Minimum temperature yesterday: 62 °F (at 10:56 pm)
Average temperature yesterday: 75 °F

High & Low Weather Summary for the Past Weeks

 TemperatureHumidityPressure
High94 °F (Feb 8, 2:56 pm)100% (Feb 5, 5:32 am)30.33 "Hg (Feb 5, 5:32 am)
Low42 °F (Feb 16, 5:56 am)13% (Feb 8, 2:56 pm)29.65 "Hg (Feb 18, 5:56 pm)
Average70 °F62%29.97 "Hg
* Reported Feb 5 5:32 am — Feb 20 5:56 am, Laredo, Weather by CustomWeather, © 2017

Note: Actual official high and low records may vary slightly from our data, if they occured in-between our weather recording intervals... More about our weather records

Advertising

Laredo Weather History for the Previous 24 Hours

Scroll right to see more
 ConditionsComfort  
Time TempWeatherWind HumidityBarometerVisibility
5:56 am
Mon, Feb 20
60 °FClear.7 mph93%29.94 "Hg10 mi
4:56 am60 °FClear.8 mph93%29.90 "Hg10 mi
3:56 am61 °FClear.3 mph90%29.89 "Hg10 mi
2:56 am61 °FPassing clouds.3 mph93%29.92 "Hg10 mi
1:56 am61 °FPassing clouds.8 mph90%29.90 "Hg10 mi
1:35 am61 °FLight rain. Partly cloudy.14 mph88%29.87 "Hg10 mi
12:56 am62 °FThunderstorms. Overcast.8 mph93%29.92 "Hg10 mi
12:06 am63 °FThundershowers. Mostly cloudy.6 mph94%29.88 "Hg10 mi
11:56 pm
Sun, Feb 19
62 °FThundershowers. Mostly cloudy.5 mph90%29.88 "Hg10 mi
10:56 pm62 °FPartly cloudy.10 mph93%29.87 "Hg10 mi
10:20 pm63 °FThundershowers. Mostly cloudy.12 mph94%29.86 "Hg10 mi
9:30 pm66 °FThundershowers. Passing clouds.15 mph88%29.77 "Hg10 mi
8:56 pm65 °FThunderstorms. Mostly cloudy.13 mph94%29.78 "Hg10 mi
7:56 pm83 °FThunderstorms. Mostly cloudy.No wind55%29.68 "Hg7 mi
6:56 pm83 °FClear.6 mph53%29.69 "Hg10 mi
5:56 pm86 °FPassing clouds.13 mph48%29.68 "Hg10 mi
4:56 pm87 °FSunny.6 mph45%29.70 "Hg10 mi
3:56 pm88 °FSunny.8 mph43%29.70 "Hg10 mi
2:56 pm88 °FSunny.6 mph46%29.71 "Hg10 mi
1:56 pm85 °FSunny.13 mph51%29.71 "Hg10 mi
12:56 pm84 °FSunny.7 mph55%29.75 "Hg9 mi
11:56 am81 °FPassing clouds.10 mph60%29.79 "Hg9 mi
11:17 am81 °FScattered clouds.14 mph62%29.80 "Hg8 mi
10:56 am78 °FPartly sunny.13 mph66%29.82 "Hg7 mi
9:56 am78 °FPartly sunny.15 mph69%29.80 "Hg6 mi
9:12 am73 °FPartly sunny.9 mph78%29.80 "Hg5 mi
8:56 am73 °FScattered clouds.9 mph81%29.80 "Hg5 mi
7:56 am72 °FOvercast.9 mph81%29.78 "Hg5 mi
Weather by CustomWeather, © 2017

See weather overviewHow to use our weather pages